Temp
-6 -5 -6 -5 -5 -5 -5 -5 -5 -5 -5 -6 -6 -6 -7 -7 -7 -7 -7 -7 -7 -7 -7 -7 -7 -7 -8 -8 -8 -9 -9 -9 -9
-6 -5 -5 -6 -6 -6 -5 -5 -6 -6 -5 -6 -6 -7 -7 -7 -7 -7 -7 -7 -7 -7 -7 -8 -8 -8 -8 -8 -8 -9 -9 -9 -9
-6 -6 -6 -6 -6 -6 -5 -6 -6 -6 -6 -6 -6 -7 -7 -7 -7 -7 -7 -7 -7 -8 -8 -8 -8 -8 -8 -8 -9 -9 -9 -9 -9
-6 -6 -6 -6 -6 -6 -6 -6 -6 -6 -6 -6 -6 -7 -7 -7 -7 -7 -7 -7 -8 -8 -8 -8 -8 -8 -8 -9 -9 -9 -9 -9 -9
-7 -7 -7 -6 -6 -6 -6 -6 -6 -6 -6 -6 -6 -7 -7 -7 -7 -7 -7 -7 -7 -8 -8 -8 -8 -8 -9 -9 -9 -9 -9 -9 -8
-7 -7 -7 -7 -7 -7 -6 -6 -6 -6 -6 -6 -6 -7 -7 -7 -7 -7 -7 -7 -7 -8 -8 -8 -8 -8 -9 -9 -8 -9 -9 -9 -9
-7 -8 -8 -7 -7 -7 -7 -7 -6 -7 -7 -7 -7 -7 -7 -7 -7 -7 -7 -7 -8 -8 -8 -8 -8 -8 -8 -9 -9 -9 -9 -9 -9
-8 -8 -8 -8 -8 -7 -7 -7 -7 -7 -7 -7 -7 -7 -7 -7 -7 -7 -8 -8 -8 -8 -8 -8 -8 -8 -9 -9 -9 -9 -9 -9 -9
-9 -8 -8 -8 -8 -8 -8 -7 -7 -7 -7 -7 -7 -7 -7 -7 -7 -8 -8 -8 -8 -8 -8 -8 -8 -8 -9 -9 -9 -9 -9 -8 -9
-9 -9 -9 -8 -8 -8 -8 -8 -8 -8 -7 -7 -7 -8 -8 -8 -8 -8 -8 -8 -8 -8 -8 -8 -8 -9 -9 -9 -9 -9 -8 -9 -9
-10 -9 -9 -9 -8 -8 -8 -8 -8 -8 -8 -8 -8 -8 -8 -8 -8 -8 -8 -8 -8 -8 -8 -8 -9 -9 -9 -9 -9 -9 -9 -9 -9
-10 -9 -9 -9 -9 -8 -8 -8 -8 -8 -8 -8 -8 -8 -8 -8 -8 -8 -8 -8 -9 -9 -9 -9 -9 -9 -9 -9 -9 -9 -9 -9 -9
-10 -10 -9 -9 -9 -9 -8 -8 -8 -8 -8 -8 -8 -8 -8 -8 -9 -8 -9 -9 -9 -9 -9 -9 -9 -9 -9 -9 -9 -9 -9 -8 -8
-10 -10 -10 -9 -9 -9 -9 -9 -8 -8 -8 -8 -9 -9 -9 -9 -9 -9 -9 -9 -9 -9 -9 -10 -10 -10 -10 -10 -9 -9 -9 -9 -8
-10 -10 -10 -10 -9 -9 -9 -9 -9 -9 -8 -9 -9 -9 -9 -9 -9 -10 -9 -9 -10 -10 -10 -10 -10 -10 -10 -9 -9 -9 -9 -9 -9
-10 -10 -10 -10 -9 -9 -9 -9 -9 -9 -9 -9 -9 -9 -9 -10 -10 -10 -10 -10 -10 -11 -10 -11 -10 -10 -10 -9 -9 -9 -9 -9 -9
-11 -10 -10 -10 -10 -9 -9 -9 -9 -9 -9 -9 -10 -10 -10 -10 -10 -10 -10 -11 -11 -11 -11 -11 -11 -10 -9 -9 -9 -9 -9 -9 -9
-11 -10 -10 -10 -10 -10 -10 -9 -10 -10 -10 -10 -10 -11 -11 -11 -10 -10 -11 -11 -11 -11 -11 -11 -11 -10 -10 -10 -10 -10 -10 -10 -10
-11 -11 -11 -10 -10 -10 -10 -10 -10 -10 -10 -10 -11 -12 -12 -11 -11 -11 -11 -11 -11 -11 -11 -11 -11 -10 -10 -10 -10 -10 -10 -11 -11
-11 -12 -11 -11 -10 -10 -10 -10 -10 -11 -11 -11 -11 -12 -12 -12 -12 -12 -12 -12 -12 -11 -11 -11 -11 -10 -11 -10 -11 -11 -11 -11 -12
Height
5885 5886 5887 5888 5888 5889 5889 5890 5890 5890 5890 5890 5890 5890 5890 5890 5889 5888 5888 5887 5886 5885 5884 5883 5881 5879 5877 5875 5873 5870 5867 5864 5861
5882 5884 5885 5886 5887 5887 5888 5888 5889 5889 5889 5889 5890 5890 5890 5889 5889 5887 5887 5886 5886 5885 5884 5882 5881 5879 5876 5874 5871 5869 5866 5863 5859
5880 5881 5883 5884 5886 5886 5887 5887 5888 5888 5888 5888 5888 5889 5889 5888 5888 5887 5887 5885 5885 5884 5883 5882 5879 5877 5875 5872 5870 5866 5864 5861 5858
5877 5879 5881 5882 5884 5885 5886 5887 5886 5887 5887 5887 5887 5887 5887 5887 5886 5886 5885 5885 5884 5883 5882 5880 5878 5876 5873 5871 5868 5865 5862 5860 5856
5876 5877 5879 5880 5882 5883 5885 5886 5886 5886 5886 5886 5886 5886 5886 5886 5885 5884 5883 5883 5882 5881 5880 5878 5876 5874 5872 5869 5866 5864 5861 5858 5855
5874 5874 5876 5878 5879 5881 5882 5883 5884 5884 5884 5885 5885 5884 5884 5884 5884 5882 5882 5881 5881 5880 5879 5877 5874 5872 5869 5867 5864 5861 5859 5856 5852
5869 5871 5873 5875 5876 5878 5880 5880 5881 5882 5881 5882 5883 5883 5883 5882 5882 5882 5881 5880 5880 5878 5877 5875 5872 5869 5867 5864 5862 5859 5856 5853 5850
5865 5867 5870 5871 5873 5875 5877 5878 5879 5879 5879 5880 5881 5881 5881 5880 5880 5880 5879 5878 5877 5876 5874 5872 5870 5867 5864 5861 5859 5856 5853 5850 5847
5860 5863 5865 5866 5868 5870 5874 5875 5876 5876 5877 5877 5878 5878 5879 5878 5878 5877 5876 5875 5874 5872 5871 5869 5867 5864 5861 5859 5856 5853 5850 5847 5844
5854 5858 5860 5862 5865 5867 5869 5871 5873 5873 5874 5875 5875 5876 5876 5876 5876 5875 5873 5872 5870 5869 5867 5865 5863 5861 5859 5856 5854 5851 5847 5843 5839
5847 5852 5854 5858 5860 5863 5865 5866 5868 5869 5871 5871 5871 5873 5873 5873 5872 5872 5871 5869 5867 5865 5864 5862 5860 5858 5856 5853 5851 5848 5845 5841 5838
5841 5845 5849 5852 5855 5858 5861 5862 5863 5865 5866 5868 5869 5869 5869 5869 5868 5868 5867 5865 5864 5862 5859 5858 5856 5855 5852 5849 5847 5844 5842 5839 5836
5834 5838 5843 5846 5851 5853 5855 5857 5858 5860 5862 5863 5865 5865 5864 5865 5865 5864 5863 5862 5861 5859 5856 5854 5853 5852 5850 5847 5843 5840 5837 5835 5832
5827 5832 5836 5840 5844 5847 5850 5852 5853 5854 5857 5859 5859 5860 5860 5861 5860 5860 5858 5856 5856 5854 5853 5851 5849 5848 5846 5844 5841 5837 5834 5831 5826
5819 5824 5830 5835 5838 5840 5845 5846 5847 5849 5852 5854 5855 5855 5856 5856 5856 5856 5853 5852 5852 5850 5848 5847 5846 5846 5844 5841 5837 5835 5832 5828 5825
5810 5817 5823 5829 5832 5834 5837 5840 5842 5844 5847 5849 5849 5851 5851 5851 5851 5850 5849 5848 5846 5846 5843 5842 5842 5841 5840 5838 5835 5832 5829 5825 5822
5802 5808 5818 5823 5823 5826 5831 5834 5836 5839 5842 5843 5844 5845 5845 5845 5845 5845 5844 5844 5841 5841 5839 5838 5837 5836 5835 5833 5831 5828 5826 5823 5819
5793 5801 5809 5813 5814 5820 5824 5827 5829 5833 5835 5836 5839 5839 5839 5839 5838 5838 5839 5837 5837 5837 5836 5834 5833 5832 5831 5829 5827 5824 5822 5819 5815
5786 5792 5800 5804 5807 5812 5816 5819 5822 5825 5828 5830 5832 5831 5832 5832 5832 5832 5831 5832 5830 5831 5830 5830 5830 5828 5827 5826 5823 5820 5817 5813 5809
5776 5783 5790 5794 5800 5804 5809 5812 5815 5818 5821 5822 5823 5823 5825 5825 5826 5825 5825 5824 5824 5824 5824 5825 5825 5823 5821 5821 5818 5815 5813 5808 5803
Wind_Speed
17 16 14 13 12 10 7 5 5 4 4 6 7 7 4 2 1 0 1 3 6 9 11 13 15 17 19 20 22 23 23 25 26
17 17 16 16 14 11 9 7 7 6 6 7 8 8 6 4 3 2 3 5 6 9 11 13 15 17 19 20 22 23 24 25 26
20 18 17 16 14 12 11 9 8 9 8 9 10 10 9 7 6 5 5 7 8 10 12 14 16 17 19 21 22 22 23 26 28
23 19 19 16 15 13 12 12 10 10 11 10 10 12 12 11 9 8 8 9 10 11 13 15 17 18 20 21 23 22 23 24 24
24 20 19 17 16 14 14 14 12 12 13 12 12 13 13 13 11 10 11 11 12 13 14 15 18 19 21 22 22 21 23 22 27
26 23 21 20 19 17 16 16 15 13 14 14 14 14 13 14 14 13 12 12 13 14 15 17 19 20 21 22 20 21 22 25 26
32 28 24 24 22 20 18 18 16 15 16 15 15 14 15 14 14 13 13 13 14 15 17 19 21 22 23 22 20 21 25 28 27
34 32 28 26 25 23 21 20 18 17 17 17 16 16 16 15 14 14 14 15 16 18 19 21 22 23 21 19 21 24 27 28 26
36 34 31 29 27 25 23 22 20 19 19 18 17 17 17 16 15 15 15 17 18 20 21 22 24 23 21 21 23 27 32 28 26
37 36 34 31 29 26 25 23 22 21 21 20 19 18 18 18 17 17 17 19 20 20 21 22 23 24 23 24 26 29 30 25 21
39 38 37 33 30 28 26 25 24 23 22 22 21 19 19 20 19 19 21 21 21 20 21 23 23 24 25 25 26 29 25 24 23
41 40 38 35 31 29 28 26 25 25 24 23 22 21 21 22 22 22 22 22 22 22 21 22 24 24 25 26 27 25 23 23 23
46 43 40 36 32 31 30 29 27 26 26 25 24 23 24 24 24 23 23 22 22 22 22 23 25 27 26 23 20 22 22 20 21
49 46 42 37 33 33 32 31 30 28 27 26 26 25 25 25 25 24 24 23 20 21 24 24 27 22 16 17 18 20 21 24 28
53 49 45 38 35 35 33 32 32 30 28 27 27 27 26 25 25 23 24 22 23 23 25 27 17 16 13 14 17 21 23 25 28
56 51 46 40 38 35 36 34 33 32 30 28 28 28 26 26 25 24 24 21 20 25 28 19 18 16 16 16 17 19 21 23 24
57 52 45 41 41 39 36 36 36 33 31 30 29 27 28 28 28 26 25 23 24 24 17 16 16 14 13 13 14 15 16 19 22
57 53 46 45 45 39 39 39 37 35 33 33 29 27 32 29 29 29 26 25 26 20 17 16 16 16 16 12 12 12 15 17 18
59 52 48 47 46 44 42 41 39 37 35 34 31 31 34 31 30 30 32 31 20 18 20 18 15 12 12 12 10 13 14 14 22
56 54 51 51 48 46 44 42 39 37 39 38 36 37 33 34 32 36 37 27 23 26 22 22 19 14 13 14 13 15 14 20 25
Wind_Direction
241 243 235 238 240 240 237 240 245 243 257 231 215 214 223 228 269 34 15 337 347 347 352 355 355 354 353 354 354 355 356 355 354
230 241 238 240 239 236 235 235 242 240 249 238 224 224 233 241 257 284 306 318 330 336 340 345 346 346 346 348 348 349 350 352 350
227 235 238 238 239 239 241 240 240 243 244 240 230 230 236 246 254 273 290 302 315 325 331 334 337 336 338 340 340 343 348 347 346
229 230 235 234 239 244 248 249 245 248 248 246 236 237 239 248 261 275 285 297 308 317 322 325 325 330 332 334 334 338 345 343 346
234 227 231 233 238 245 255 257 253 253 252 251 246 242 246 254 261 270 280 291 300 308 313 317 321 325 327 327 331 338 342 346 344
234 229 232 234 241 245 250 254 253 253 254 254 252 249 251 258 263 270 279 291 300 306 312 317 319 319 321 324 330 334 341 343 339
236 237 237 238 242 245 247 251 250 249 252 252 256 255 257 261 268 275 284 295 300 305 310 311 313 317 322 325 328 332 336 337 333
238 237 240 243 241 242 244 248 247 249 250 251 254 256 258 262 269 279 288 293 297 303 306 310 313 316 320 323 326 331 336 335 333
240 238 237 241 241 240 244 245 246 247 249 251 251 256 260 266 272 276 284 290 297 300 307 312 313 315 319 321 325 331 332 330 328
238 239 238 240 242 241 242 243 245 246 251 254 254 257 261 267 273 277 282 287 293 299 306 308 310 315 319 323 327 330 332 334 335
236 238 239 241 242 242 242 240 244 247 250 252 254 257 263 268 272 278 285 288 293 300 305 306 309 316 320 324 326 328 332 342 343
235 236 238 239 241 242 243 240 242 245 247 252 256 260 263 266 273 279 283 288 294 298 303 303 307 316 319 319 323 324 332 336 331
235 235 237 238 239 240 241 242 241 245 247 250 256 258 264 270 275 277 283 289 295 299 298 304 309 313 318 324 330 332 339 335 330
234 234 235 235 236 239 240 242 242 244 248 251 255 258 262 268 273 279 286 290 291 292 301 307 312 315 324 329 323 328 324 323 321
232 232 233 233 233 237 241 243 244 246 249 252 255 259 264 267 271 278 280 284 288 292 302 308 307 311 308 310 308 311 315 318 320
228 229 230 231 234 235 238 242 244 247 250 253 256 261 264 267 272 273 277 279 291 298 302 295 297 294 288 290 303 313 321 328 323
225 226 228 229 232 234 238 242 245 249 251 252 255 258 264 266 268 270 270 274 294 292 278 284 273 275 287 295 305 320 327 328 316
222 224 224 226 231 232 236 240 244 247 249 251 254 260 262 262 266 269 265 282 295 275 254 245 260 274 281 295 306 318 329 339 332
218 223 222 225 229 231 235 239 243 246 248 252 251 255 262 260 262 264 269 284 269 246 245 249 262 263 274 287 300 315 324 321 307
216 221 221 225 228 232 236 239 242 247 251 249 249 258 258 260 258 255 273 271 261 240 237 247 252 251 271 287 290 306 313 305 306